TimeEDT,TemperatureF,Dew PointF,Humidity,Sea Level PressureIn,VisibilityMPH,Wind Direction,Wind SpeedMPH,Gust SpeedMPH,PrecipitationIn,Events,Conditions,WindDirDegrees,DateUTC
12:53 AM,73.0,66.0,79,30.12,10.0,East,10.4,-,N/A,,Clear,80,2013-04-09 04:53:00
1:53 AM,73.0,64.9,76,30.10,10.0,East,10.4,-,N/A,,Clear,100,2013-04-09 05:53:00
2:53 AM,73.9,64.9,73,30.09,10.0,ESE,10.4,-,N/A,,Scattered Clouds,110,2013-04-09 06:53:00
3:53 AM,73.9,64.0,71,30.06,10.0,ESE,9.2,-,N/A,,Partly Cloudy,120,2013-04-09 07:53:00
4:53 AM,73.9,64.0,71,30.07,10.0,ESE,11.5,-,N/A,,Clear,120,2013-04-09 08:53:00
5:53 AM,73.0,64.9,76,30.09,10.0,ESE,6.9,-,N/A,,Clear,120,2013-04-09 09:53:00
6:53 AM,73.9,66.0,76,30.10,10.0,ESE,9.2,-,N/A,,Partly Cloudy,120,2013-04-09 10:53:00
7:53 AM,73.9,66.0,76,30.11,10.0,ESE,9.2,-,N/A,,Partly Cloudy,120,2013-04-09 11:53:00
8:53 AM,77.0,64.9,66,30.13,10.0,ESE,11.5,-,N/A,,Partly Cloudy,120,2013-04-09 12:53:00
9:53 AM,77.0,66.0,69,30.15,10.0,ESE,12.7,-,N/A,,Scattered Clouds,120,2013-04-09 13:53:00
10:53 AM,79.0,66.9,66,30.16,10.0,East,16.1,-,N/A,,Mostly Cloudy,100,2013-04-09 14:53:00
11:53 AM,79.0,66.9,66,30.16,10.0,East,12.7,-,N/A,,Mostly Cloudy,100,2013-04-09 15:53:00
12:53 PM,79.0,66.9,66,30.15,10.0,East,15.0,-,N/A,,Mostly Cloudy,90,2013-04-09 16:53:00
1:53 PM,80.1,66.0,62,30.14,10.0,East,12.7,-,N/A,,Mostly Cloudy,90,2013-04-09 17:53:00
2:53 PM,80.1,64.9,60,30.12,10.0,ESE,16.1,21.9,N/A,,Clear,110,2013-04-09 18:53:00
3:53 PM,81.0,66.0,60,30.11,10.0,East,11.5,-,N/A,,Clear,100,2013-04-09 19:53:00
4:53 PM,79.0,66.0,64,30.11,10.0,East,11.5,-,N/A,,Scattered Clouds,80,2013-04-09 20:53:00
5:53 PM,77.0,64.9,66,30.10,10.0,ENE,11.5,-,N/A,,Clear,70,2013-04-09 21:53:00
6:53 PM,75.9,64.0,67,30.11,10.0,East,10.4,-,N/A,,Clear,90,2013-04-09 22:53:00
7:53 PM,75.0,64.9,71,30.11,10.0,East,10.4,-,N/A,,Clear,90,2013-04-09 23:53:00
8:53 PM,75.0,64.0,69,30.12,10.0,East,9.2,-,N/A,,Clear,80,2013-04-10 00:53:00
9:53 PM,75.0,64.9,71,30.12,10.0,East,11.5,-,N/A,,Clear,100,2013-04-10 01:53:00
10:53 PM,73.9,64.9,73,30.12,10.0,East,11.5,-,N/A,,Clear,90,2013-04-10 02:53:00
11:53 PM,73.9,66.9,79,30.12,10.0,East,10.4,-,N/A,,Clear,90,2013-04-10 03:53:00